period_start,C,m1,H,J0,J1,J2,J3,J4,J5,JA,JB,JC,JD,JJ,JK,JN,#
2015-04-02 00:03:28,0.11,1.54,0.00,24.01,28.42,31.58,4.85,27.72,1028.33,2026.00,2845.33,2874.08,3106.65,350.25,350.84,7.01,0000 0000 0000 0000 000000
2015-04-02 00:08:29,0.12,1.54,0.00,24.06,28.43,31.60,4.86,27.76,1028.33,2026.00,2843.98,2873.23,3105.61,350.48,350.89,7.04,0000 0000 0000 0000 000000
2015-04-02 00:13:30,0.12,1.55,0.00,24.05,28.45,31.61,4.83,27.74,1028.33,2026.00,2842.71,2872.36,3104.66,349.91,350.46,7.07,0000 0000 0000 0000 000000
2015-04-02 00:18:31,0.12,1.55,0.00,24.08,28.46,31.62,4.79,27.63,1028.33,2025.99,2841.37,2871.48,3103.61,349.71,350.09,7.10,0000 0000 0000 0000 000000
2015-04-02 00:23:32,0.15,1.55,0.00,24.12,28.47,31.65,4.78,27.73,1028.33,2025.98,2839.69,2870.33,3102.34,349.72,350.10,7.13,0000 0000 0000 0000 000000
2015-04-02 00:28:34,0.13,1.56,0.00,24.23,28.50,31.65,4.81,27.82,1028.33,2025.98,2838.09,2869.27,3101.05,349.86,350.10,7.15,0000 0000 0000 0000 000000
2015-04-02 00:33:35,0.15,1.56,0.00,24.58,28.51,31.61,4.85,27.80,1028.35,2025.98,2836.56,2868.21,3099.81,349.72,349.41,7.18,0000 0000 0000 0000 000000
2015-04-02 00:38:36,0.15,1.57,0.00,24.49,28.52,31.59,4.79,27.67,1028.35,2025.97,2834.76,2867.01,3098.51,349.97,349.95,7.21,0000 0000 0000 0000 000000
2015-04-02 00:43:37,0.12,1.57,0.00,24.58,28.52,31.62,4.80,27.68,1028.40,2025.94,2833.22,2865.97,3097.38,350.09,349.88,7.24,0000 0000 0000 0000 000000
2015-04-02 00:48:38,0.13,1.58,0.00,24.53,28.53,31.53,4.82,27.66,1028.40,2025.89,2831.65,2864.97,3096.14,349.71,349.62,7.27,0000 0000 0000 0000 000000
2015-04-02 00:53:40,0.14,1.58,0.00,24.37,28.52,31.48,4.83,27.73,1028.44,2025.87,2830.04,2863.94,3094.90,349.97,350.21,7.30,0000 0000 0000 0000 000000
2015-04-02 00:58:41,0.14,1.58,0.00,24.37,28.52,31.44,4.82,27.74,1028.40,2025.92,2828.62,2862.98,3093.82,349.93,350.04,7.33,0000 0000 0000 0000 000000
2015-04-02 01:03:42,0.14,1.59,0.00,24.40,28.52,31.40,4.86,27.82,1028.46,2025.93,2827.06,2861.98,3092.62,350.43,350.35,7.36,0000 0000 0000 0000 000000
2015-04-02 01:08:44,0.15,1.59,0.00,24.34,28.52,31.44,4.76,27.76,1028.40,2025.88,2825.41,2860.90,3091.39,350.01,350.11,7.39,0000 0000 0000 0000 000000
2015-04-02 01:13:45,0.14,1.60,0.00,24.35,28.52,31.45,4.77,27.79,1028.50,2025.85,2823.83,2859.84,3090.18,349.39,349.57,7.42,0000 0000 0000 0000 000000
2015-04-02 01:18:47,0.12,1.60,0.00,24.41,28.52,31.48,4.76,27.77,1028.59,2025.78,2822.22,2858.78,3088.99,350.14,350.12,7.45,0000 0000 0000 0000 000000
2015-04-02 01:23:48,0.16,1.60,0.00,24.72,28.52,31.50,4.91,27.73,1028.49,2025.74,2820.61,2857.72,3087.75,350.40,350.08,7.48,0000 0000 0000 0000 000000
2015-04-02 01:28:50,0.13,1.61,0.00,24.77,28.52,31.49,4.77,27.72,1028.68,2025.81,2819.12,2856.76,3086.64,350.05,349.90,7.51,0000 0000 0000 0000 000000
2015-04-02 01:33:51,0.15,1.61,0.00,24.83,28.52,31.46,4.76,27.77,1028.78,2025.90,2817.65,2855.83,3085.55,349.35,349.30,7.53,0000 0000 0000 0000 000000
2015-04-02 01:38:52,0.11,1.62,0.00,24.84,28.52,31.44,4.90,27.89,1028.81,2025.94,2816.21,2854.91,3084.47,350.40,349.86,7.56,0000 0000 0000 0000 000000
2015-04-02 01:43:53,0.13,1.62,0.00,24.89,28.52,31.43,4.85,27.85,1028.82,2025.97,2814.86,2853.99,3083.44,350.22,349.85,7.59,0000 0000 0000 0000 000000
2015-04-02 01:48:54,0.12,1.63,0.00,24.88,28.52,31.39,4.78,27.83,1028.82,2025.96,2813.40,2853.05,3082.32,350.08,349.60,7.62,0000 0000 0000 0000 000000
2015-04-02 01:53:56,0.14,1.63,0.00,24.89,28.50,31.37,4.77,28.02,1028.82,2025.96,2811.79,2852.10,3081.20,350.16,349.71,7.65,0000 0000 0000 0000 000000
2015-04-02 01:58:57,0.12,1.63,0.00,24.90,28.50,31.33,4.82,27.95,1028.82,2025.96,2810.53,2851.23,3080.20,350.09,349.56,7.68,0000 0000 0000 0000 000000
2015-04-02 02:03:58,0.12,1.64,0.00,24.87,28.49,31.29,4.72,27.93,1028.82,2025.98,2809.10,2850.40,3079.17,349.19,348.85,7.71,0000 0000 0000 0000 000000
2015-04-02 02:08:59,0.11,1.64,0.00,24.93,28.47,31.29,4.78,27.96,1028.81,2025.99,2807.78,2849.63,3078.32,349.92,349.36,7.74,0000 0000 0000 0000 000000
2015-04-02 02:14:01,0.09,1.64,0.00,24.91,28.46,31.29,4.76,27.88,1028.81,2025.99,2806.65,2848.98,3077.44,349.35,349.07,7.77,0000 0000 0000 0000 000000
2015-04-02 02:19:02,0.10,1.65,0.00,24.89,28.45,31.25,4.81,27.94,1028.82,2025.99,2805.49,2848.23,3076.71,349.99,349.54,7.80,0000 0000 0000 0000 000000
2015-04-02 02:24:03,0.09,1.65,0.00,24.95,28.44,31.22,4.82,27.92,1028.82,2025.99,2804.32,2847.66,3075.88,349.94,349.49,7.83,0000 0000 0000 0000 000000
2015-04-02 02:29:04,0.09,1.65,0.00,24.92,28.42,31.19,4.84,27.88,1028.82,2025.99,2803.05,2846.95,3075.05,349.99,349.41,7.86,0000 0000 0000 0000 000000
2015-04-02 02:34:06,0.12,1.66,0.00,24.96,28.42,31.17,4.81,27.91,1028.82,2026.00,2801.83,2846.13,3074.26,350.41,349.71,7.89,0000 0000 0000 0000 000000
2015-04-02 02:39:07,0.12,1.66,0.00,24.94,28.40,31.15,4.78,27.77,1028.82,2026.00,2800.60,2845.37,3073.30,349.95,349.58,7.92,0000 0000 0000 0000 000000
2015-04-02 02:44:08,0.09,1.66,0.00,24.94,28.40,31.14,4.78,27.97,1028.82,2026.00,2799.52,2844.75,3072.37,350.31,349.87,7.94,0000 0000 0000 0000 000000
2015-04-02 02:49:09,0.10,1.67,0.00,24.95,28.37,31.13,4.92,28.04,1028.83,2026.02,2798.24,2843.98,3071.49,350.73,350.37,7.97,0000 0000 0000 0000 000000
2015-04-02 02:54:10,0.12,1.67,0.00,24.99,28.37,31.13,4.84,27.88,1028.83,2026.02,2796.89,2843.13,3070.60,350.43,349.97,8.00,0000 0000 0000 0000 000000
2015-04-02 02:59:12,0.11,1.67,0.00,25.03,28.35,31.10,4.75,27.80,1028.84,2026.06,2795.75,2842.49,3069.80,349.58,348.97,8.03,0000 0000 0000 0000 000000
2015-04-02 03:04:13,0.08,1.68,0.00,25.01,28.34,31.09,4.83,27.90,1028.86,2026.06,2794.49,2841.87,3068.97,350.31,349.54,8.06,0000 0000 0000 0000 000000
2015-04-02 03:09:14,0.12,1.68,0.00,25.02,28.32,31.06,4.84,27.87,1028.86,2026.16,2793.33,2841.04,3068.09,350.16,349.71,8.09,0000 0000 0000 0000 000000
2015-04-02 03:14:15,0.11,1.68,0.00,25.03,28.32,31.06,4.80,27.83,1028.90,2026.22,2792.13,2840.25,3067.20,350.11,349.48,8.12,0000 0000 0000 0000 000000
2015-04-02 03:19:16,0.16,1.69,0.00,25.06,28.30,31.04,4.84,27.80,1028.94,2026.37,2790.83,2839.59,3066.32,350.62,350.26,8.15,0000 0000 0000 0000 000000
2015-04-02 03:24:18,0.15,1.69,0.00,25.02,28.29,31.01,4.81,27.85,1029.14,2026.71,2789.71,2838.99,3065.54,350.28,349.95,8.18,0000 0000 0000 0000 000000
2015-04-02 03:29:19,0.13,1.69,0.00,25.09,28.27,31.00,4.77,27.79,1029.27,2026.90,2788.50,2838.22,3064.73,350.19,349.74,8.21,0000 0000 0000 0000 000000
2015-04-02 03:34:20,0.10,1.70,0.00,25.07,28.26,30.96,4.87,28.07,1029.31,2026.96,2787.37,2837.58,3063.99,350.19,349.88,8.24,0000 0000 0000 0000 000000
2015-04-02 03:39:21,0.08,1.70,0.00,25.13,28.25,30.95,4.81,27.94,1029.31,2026.97,2786.15,2836.91,3063.10,350.68,350.19,8.27,0000 0000 0000 0000 000000
2015-04-02 03:44:22,0.12,1.70,0.00,25.09,28.24,30.96,4.77,27.98,1029.30,2026.97,2784.81,2836.08,3062.16,350.09,349.26,8.30,0000 0000 0000 0000 000000
2015-04-02 03:49:24,0.10,1.71,0.00,25.14,28.22,30.93,4.82,27.95,1029.29,2026.99,2783.79,2835.60,3061.51,350.27,349.78,8.33,0000 0000 0000 0000 000000
2015-04-02 03:54:25,0.10,1.71,0.00,25.12,28.21,30.92,4.81,28.08,1029.26,2026.99,2782.47,2834.91,3060.58,350.35,349.73,8.35,0000 0000 0000 0000 000000
2015-04-02 03:59:26,0.10,1.71,0.00,25.20,28.20,30.90,4.78,27.87,1029.25,2026.99,2781.33,2834.08,3059.73,349.76,349.23,8.38,0000 0000 0000 0000 000000
2015-04-02 04:04:28,0.11,1.72,0.00,25.17,28.20,30.89,4.84,27.99,1029.29,2026.99,2780.07,2833.32,3058.84,350.04,349.40,8.41,0000 0000 0000 0000 000000
2015-04-02 04:09:29,0.07,1.72,0.00,25.24,28.17,30.89,4.78,27.91,1029.30,2026.99,2778.92,2832.85,3058.03,350.02,349.37,8.44,0000 0000 0000 0000 000000
2015-04-02 04:14:30,0.11,1.72,0.00,25.22,28.17,30.87,4.75,27.82,1029.31,2027.01,2777.83,2832.06,3057.28,349.34,348.73,8.47,0000 0000 0000 0000 000000
2015-04-02 04:19:32,0.11,1.73,0.00,25.22,28.16,30.86,4.79,27.82,1029.31,2027.02,2776.64,2831.48,3056.59,350.17,349.57,8.50,0000 0000 0000 0000 000000
2015-04-02 04:24:33,0.06,1.73,0.00,25.14,28.15,30.85,4.80,27.98,1029.31,2027.05,2775.60,2830.97,3055.95,350.04,349.55,8.53,0000 0000 0000 0000 000000
2015-04-02 04:29:34,0.15,1.73,0.00,25.18,28.14,30.83,4.79,27.87,1029.31,2027.22,2774.54,2830.21,3055.12,350.01,349.25,8.56,0000 0000 0000 0000 000000
2015-04-02 04:34:36,0.13,1.74,0.00,25.18,28.12,30.83,4.81,27.97,1029.31,2027.41,2773.45,2829.77,3054.30,350.35,349.92,8.59,0000 0000 0000 0000 000000
2015-04-02 04:39:37,0.12,1.74,0.00,25.23,28.11,30.81,4.79,27.96,1029.31,2027.62,2772.37,2829.04,3053.64,350.30,349.74,8.62,0000 0000 0000 0000 000000
2015-04-02 04:44:38,0.12,1.74,0.00,25.20,28.10,30.79,4.78,27.88,1029.31,2027.83,2771.29,2828.44,3052.96,350.09,349.52,8.65,0000 0000 0000 0000 000000
2015-04-02 04:49:40,0.08,1.75,0.00,25.24,28.09,30.77,4.83,27.90,1029.31,2027.94,2770.19,2827.97,3052.11,350.21,349.57,8.68,0000 0000 0000 0000 000000
2015-04-02 04:54:41,0.11,1.75,0.00,25.29,28.07,30.74,4.82,27.89,1029.31,2027.95,2769.12,2827.17,3051.46,350.07,349.42,8.71,0000 0000 0000 0000 000000
2015-04-02 04:59:43,0.06,1.75,0.00,25.29,28.06,30.74,4.80,27.88,1029.31,2027.98,2768.19,2826.88,3050.84,350.23,349.40,8.74,0000 0000 0000 0000 000000
2015-04-02 05:04:44,0.10,1.75,0.00,25.29,28.05,30.72,4.88,28.03,1029.31,2027.98,2767.17,2826.08,3050.05,350.37,349.80,8.76,0000 0000 0000 0000 000000
2015-04-02 05:09:45,0.07,1.76,0.00,25.26,28.03,30.71,4.83,27.93,1029.31,2027.99,2766.22,2825.85,3049.46,350.09,349.50,8.79,0000 0000 0000 0000 000000
2015-04-02 05:14:47,0.08,1.76,0.00,25.31,28.02,30.65,4.79,27.74,1029.31,2027.99,2765.31,2825.11,3049.01,350.22,349.68,8.82,0000 0000 0000 0000 000000
2015-04-02 05:19:48,0.07,1.76,0.00,25.31,28.00,30.66,4.78,27.93,1029.31,2028.00,2764.56,2824.79,3048.64,349.52,348.87,8.85,0000 0000 0000 0000 000000
2015-04-02 05:24:49,0.08,1.76,0.00,25.31,28.00,30.64,4.84,27.86,1029.31,2028.02,2763.33,2824.05,3047.98,350.23,349.57,8.88,0000 0000 0000 0000 000000
2015-04-02 05:29:51,0.06,1.77,0.00,25.33,27.97,30.63,4.82,27.84,1029.31,2028.05,2762.62,2823.94,3047.21,350.02,349.35,8.91,0000 0000 0000 0000 000000
2015-04-02 05:34:52,0.08,1.77,0.00,25.28,27.97,30.61,4.78,27.97,1029.31,2028.15,2761.90,2823.22,3046.96,350.00,349.48,8.94,0000 0000 0000 0000 000000
2015-04-02 05:39:54,0.10,1.77,0.00,25.35,27.95,30.54,4.71,28.02,1029.31,2028.45,2761.15,2823.01,3046.26,349.66,348.85,8.97,0000 0000 0000 0000 000000
2015-04-02 05:44:55,0.07,1.77,0.00,25.31,27.93,30.54,4.87,28.06,1029.31,2028.36,2760.46,2822.47,3045.59,350.37,349.89,9.00,0000 0000 0000 0000 000000
2015-04-02 05:49:56,0.12,1.78,0.00,25.27,27.92,30.55,4.78,27.98,1029.31,2028.57,2759.44,2822.00,3045.01,349.91,349.38,9.03,0000 0000 0000 0000 000000
2015-04-02 05:54:57,0.13,1.78,0.00,25.32,27.90,30.56,4.75,28.07,1029.31,2028.80,2758.68,2821.40,3044.37,349.98,349.19,9.06,0000 0000 0000 0000 000000
2015-04-02 05:59:59,0.04,1.78,0.00,25.29,27.90,30.56,4.81,27.98,1029.31,2028.96,2758.01,2821.02,3043.99,350.37,349.70,9.09,0000 0000 0000 0000 000000
2015-04-02 06:05:00,0.06,1.78,0.00,25.34,27.87,30.55,4.81,28.14,1029.33,2028.98,2757.26,2820.88,3043.45,349.79,349.04,9.12,0000 0000 0000 0000 000000
2015-04-02 06:10:01,0.08,1.79,0.00,25.36,27.87,30.50,4.81,27.94,1029.34,2028.98,2756.51,2820.12,3042.98,350.53,349.59,9.15,0000 0000 0000 0000 000000
2015-04-02 06:15:02,0.06,1.79,0.00,25.29,27.85,30.49,4.76,27.98,1029.32,2028.99,2755.70,2819.90,3042.29,349.77,349.16,9.17,0000 0000 0000 0000 000000
2015-04-02 06:20:03,0.10,1.79,0.00,25.38,27.85,30.52,4.82,28.03,1029.32,2028.99,2754.66,2819.11,3041.66,349.93,349.16,9.20,0000 0000 0000 0000 000000
2015-04-02 06:25:05,0.17,1.80,0.00,25.38,27.82,30.46,4.77,28.00,1029.33,2028.99,2752.84,2818.02,3040.36,349.97,349.10,9.23,0000 0000 0000 0000 000000
2015-04-02 06:30:06,0.21,1.80,0.00,25.37,27.82,30.46,4.74,27.92,1029.34,2028.99,2750.99,2816.59,3038.90,350.24,349.64,9.26,0000 0000 0000 0000 000000
2015-04-02 06:35:07,0.08,1.81,0.00,25.37,27.80,30.40,4.79,27.99,1029.34,2029.00,2749.48,2815.89,3037.84,349.81,348.96,9.29,0000 0000 0000 0000 000000
2015-04-02 06:40:08,0.09,1.81,0.00,25.29,27.80,30.42,4.84,28.10,1029.35,2029.01,2748.75,2815.08,3037.05,350.04,349.38,9.32,0000 0000 0000 0000 000000
2015-04-02 06:45:09,0.06,1.81,0.00,25.37,27.77,30.44,4.72,28.05,1029.37,2029.00,2747.94,2814.89,3036.43,349.55,348.64,9.35,0000 0000 0000 0000 000000
2015-04-02 06:50:10,0.08,1.81,0.00,25.35,27.77,30.41,4.79,28.06,1029.37,2029.01,2747.02,2814.09,3035.89,349.72,349.06,9.38,0000 0000 0000 0000 000000
2015-04-02 06:55:12,0.07,1.81,0.00,25.36,27.75,30.45,4.78,28.05,1029.36,2029.04,2746.12,2813.87,3035.09,350.04,349.08,9.41,0000 0000 0000 0000 000000
2015-04-02 07:00:13,0.10,1.82,0.00,25.39,27.75,30.37,4.83,28.15,1029.35,2029.13,2745.59,2813.10,3034.76,349.97,349.24,9.44,0000 0000 0000 0000 000000
2015-04-02 07:05:14,0.12,1.82,0.00,25.39,27.73,30.33,4.85,28.28,1029.44,2029.34,2744.60,2812.68,3034.02,350.39,349.71,9.47,0000 0000 0000 0000 000000
2015-04-02 07:10:16,0.09,1.82,0.00,25.34,27.72,30.34,4.84,28.11,1029.65,2029.43,2743.90,2812.02,3033.19,350.14,349.63,9.50,0000 0000 0000 0000 000000
2015-04-02 07:15:17,0.08,1.83,0.00,25.32,27.71,30.41,4.80,28.02,1029.73,2029.62,2743.05,2811.76,3032.92,350.08,349.53,9.53,0000 0000 0000 0000 000000
2015-04-02 07:20:19,0.11,1.83,0.00,25.34,27.70,30.39,4.86,28.07,1029.75,2029.77,2742.28,2811.04,3032.13,350.67,350.01,9.56,0000 0000 0000 0000 000000
2015-04-02 07:25:20,0.04,1.83,0.00,25.36,27.70,30.35,4.72,27.93,1029.79,2029.91,2741.70,2810.93,3031.91,350.00,349.41,9.58,0000 0000 0000 0000 000000
2015-04-02 07:30:21,0.10,1.83,0.00,25.31,27.67,30.36,4.89,28.16,1029.80,2029.96,2741.02,2810.22,3031.16,350.65,349.89,9.61,0000 0000 0000 0000 000000
2015-04-02 07:35:22,0.04,1.84,0.00,25.30,27.67,30.31,4.84,28.02,1029.81,2029.97,2740.36,2810.00,3030.91,349.95,349.33,9.64,0000 0000 0000 0000 000000
2015-04-02 07:40:23,0.08,1.84,0.00,25.34,27.66,30.35,4.77,28.00,1029.81,2029.98,2739.76,2809.58,3030.13,349.69,349.13,9.67,0000 0000 0000 0000 000000
2015-04-02 07:45:25,0.04,1.84,0.00,25.35,27.65,30.35,4.78,28.01,1029.82,2029.99,2739.02,2809.02,3029.92,349.53,348.81,9.70,0000 0000 0000 0000 000000
2015-04-02 07:50:26,0.06,1.84,0.00,25.31,27.65,30.33,4.86,28.03,1029.84,2029.99,2738.32,2808.96,3029.16,350.09,349.46,9.73,0000 0000 0000 0000 000000
2015-04-02 07:55:27,0.07,1.84,0.00,25.29,27.64,30.36,4.86,27.97,1029.93,2029.99,2737.75,2808.24,3028.98,349.98,349.54,9.76,0000 0000 0000 0000 000000
2015-04-02 08:00:28,0.05,1.85,0.00,25.31,27.62,30.33,4.76,27.97,1029.87,2029.99,2736.96,2808.00,3028.24,350.17,349.64,9.79,0000 0000 0000 0000 000000
2015-04-02 08:05:29,0.06,1.85,0.00,25.33,27.62,30.31,4.79,28.06,1029.97,2029.99,2736.10,2807.68,3027.95,349.95,349.62,9.82,0000 0000 0000 0000 000000
2015-04-02 08:10:31,0.08,1.85,0.00,25.34,27.62,30.30,4.76,27.98,1030.07,2029.99,2735.40,2807.02,3027.18,349.73,349.22,9.85,0000 0000 0000 0000 000000
2015-04-02 08:15:32,0.04,1.85,0.00,25.23,27.62,30.30,4.84,27.85,1030.02,2030.00,2734.87,2806.74,3026.85,350.14,349.52,9.88,0000 0000 0000 0000 000000
2015-04-02 08:20:33,0.08,1.85,0.00,25.28,27.60,30.31,4.80,27.98,1030.21,2030.00,2734.09,2806.06,3026.10,350.21,349.85,9.91,0000 0000 0000 0000 000000
2015-04-02 08:25:35,0.02,1.85,0.00,25.30,27.60,30.29,4.74,27.79,1030.27,2030.00,2733.71,2805.98,3025.85,349.88,349.79,9.94,0000 0000 0000 0000 000000
2015-04-02 08:30:36,0.09,1.86,0.00,25.24,27.60,30.31,4.78,27.82,1030.27,2030.00,2733.01,2805.33,3025.06,349.81,349.49,9.97,0000 0000 0000 0000 000000
2015-04-02 08:35:38,0.05,1.86,0.00,25.20,27.60,30.26,4.84,27.92,1030.29,2030.00,2732.23,2805.00,3024.78,349.75,349.31,10.00,0000 0000 0000 0000 000000
2015-04-02 08:40:39,0.09,1.86,0.00,25.27,27.60,30.21,4.69,27.86,1030.29,2030.00,2731.61,2804.53,3024.03,349.17,348.60,10.02,0000 0000 0000 0000 000000
2015-04-02 08:45:40,0.05,1.86,0.00,25.34,27.60,30.22,4.83,28.05,1030.29,2030.00,2730.86,2804.01,3023.64,350.16,349.77,10.05,0000 0000 0000 0000 000000
2015-04-02 08:50:41,0.07,1.86,0.00,25.29,27.60,30.25,4.67,27.85,1030.30,2030.00,2729.99,2803.59,3023.00,349.44,349.06,10.08,0000 0000 0000 0000 000000
2015-04-02 08:55:42,0.07,1.87,0.00,25.26,27.60,30.28,4.78,27.78,1030.31,2030.00,2729.15,2803.02,3022.22,350.15,349.83,10.11,0000 0000 0000 0000 000000
2015-04-02 09:00:43,0.05,1.87,0.00,25.27,27.60,30.29,4.73,27.84,1030.31,2030.00,2728.59,2802.78,3021.94,350.00,349.69,10.14,0000 0000 0000 0000 000000
2015-04-02 09:05:44,0.07,1.87,0.00,25.31,27.60,30.28,4.77,27.88,1030.31,2030.00,2727.95,2802.04,3021.17,350.11,349.78,10.17,0000 0000 0000 0000 000000
2015-04-02 09:10:46,0.05,1.87,0.00,25.19,27.60,30.31,4.92,27.93,1030.38,2030.00,2727.11,2801.86,3020.85,350.79,350.58,10.20,0000 0000 0000 0000 000000
2015-04-02 09:15:47,0.09,1.87,0.00,25.26,27.60,30.33,4.83,27.87,1030.62,2030.00,2726.47,2801.16,3020.10,350.53,350.32,10.23,0000 0000 0000 0000 000000
2015-04-02 09:20:48,0.03,1.88,0.00,25.29,27.60,30.33,4.81,27.82,1030.58,2030.00,2725.84,2800.97,3019.80,349.84,349.53,10.26,0000 0000 0000 0000 000000
2015-04-02 09:25:50,0.10,1.88,0.00,25.27,27.60,30.35,4.86,27.98,1030.63,2030.00,2725.02,2800.25,3019.05,350.36,350.16,10.29,0000 0000 0000 0000 000000
2015-04-02 09:30:51,0.08,1.88,0.00,25.25,27.60,30.29,4.84,27.83,1030.74,2030.00,2724.02,2799.82,3018.40,350.72,350.73,10.32,0000 0000 0000 0000 000000
2015-04-02 09:35:52,0.19,1.89,0.00,25.19,27.60,30.34,4.80,27.93,1030.77,2030.00,2722.30,2798.59,3017.13,350.02,349.89,10.35,0000 0000 0000 0000 000000
2015-04-02 09:40:53,0.54,1.90,0.00,25.28,27.60,30.33,4.79,27.84,1030.78,2030.00,2718.00,2795.44,3013.79,350.58,350.42,10.38,0000 0000 0000 0000 000000
2015-04-02 09:45:55,0.58,1.91,0.00,25.28,27.60,30.34,4.82,27.93,1030.78,2030.00,2711.98,2791.09,3009.18,350.12,350.09,10.40,0000 0000 0000 0000 000000
2015-04-02 09:50:56,0.55,1.93,0.00,25.22,27.60,30.35,4.84,27.98,1030.78,2030.00,2706.36,2787.05,3005.09,350.25,350.19,10.43,0000 0000 0000 0000 000000
2015-04-02 09:55:58,0.44,1.94,0.00,25.26,27.59,30.32,4.70,27.93,1030.78,2030.00,2701.62,2783.69,3001.59,349.72,349.61,10.46,0000 0000 0000 0000 000000
2015-04-02 10:00:59,0.37,1.96,0.00,25.24,27.59,30.31,4.88,28.04,1030.78,2030.00,2697.83,2780.92,2998.59,350.43,350.36,10.49,0000 0000 0000 0000 000000
2015-04-02 10:06:00,0.40,1.97,0.00,25.30,27.59,30.32,4.79,28.02,1030.78,2030.00,2693.77,2778.07,2995.46,349.63,349.44,10.52,0000 0000 0000 0000 000000
2015-04-02 10:11:01,0.49,1.98,0.00,25.26,27.59,30.33,4.81,28.12,1030.78,2030.00,2689.18,2774.80,2991.86,349.70,349.68,10.55,0000 0000 0000 0000 000000
2015-04-02 10:16:03,0.44,1.99,0.00,25.28,27.59,30.34,4.71,28.00,1030.79,2030.00,2684.66,2771.55,2988.29,349.87,349.68,10.58,0000 0000 0000 0000 000000
2015-04-02 10:21:04,0.39,2.01,0.00,25.27,27.58,30.33,4.75,27.92,1030.84,2030.00,2680.73,2768.81,2985.24,349.90,349.93,10.61,0000 0000 0000 0000 000000
2015-04-02 10:26:06,0.29,2.02,0.00,25.25,27.58,30.35,4.93,27.98,1031.05,2030.00,2677.68,2766.69,2982.87,351.31,351.18,10.64,0000 0000 0000 0000 000000
2015-04-02 10:31:07,0.18,2.02,0.00,25.23,27.57,30.36,4.75,27.93,1031.26,2030.00,2675.59,2765.30,2981.33,349.61,349.68,10.67,0000 0000 0000 0000 000000
2015-04-02 10:36:09,0.13,2.03,0.00,25.24,27.57,30.34,4.79,27.98,1031.26,2030.00,2674.12,2764.26,2980.13,350.46,350.42,10.70,0000 0000 0000 0000 000000
2015-04-02 10:41:10,0.14,2.03,0.00,25.24,27.57,30.32,4.74,27.94,1031.26,2030.00,2672.72,2763.36,2979.04,350.05,350.06,10.73,0000 0000 0000 0000 000000
2015-04-02 10:46:11,0.17,2.04,0.00,25.29,27.57,30.33,4.74,27.93,1031.27,2030.00,2671.02,2762.21,2977.75,349.70,349.81,10.76,0000 0000 0000 0000 000000
2015-04-02 10:51:12,0.25,2.04,0.00,25.26,27.57,30.33,4.83,28.12,1031.27,2030.00,2668.68,2760.66,2975.99,350.29,350.36,10.79,0000 0000 0000 0000 000000
2015-04-02 10:56:14,0.28,2.05,0.00,25.23,27.57,30.34,4.83,27.88,1031.27,2030.00,2665.99,2758.70,2973.59,350.36,350.54,10.81,0000 0000 0000 0000 000000
2015-04-02 11:01:15,0.20,2.06,0.00,25.24,27.57,30.36,4.71,27.83,1031.28,2030.00,2663.64,2757.15,2971.71,349.53,349.34,10.84,0000 0000 0000 0000 000000
2015-04-02 11:06:16,0.13,2.06,0.00,25.19,27.57,30.34,4.83,27.93,1031.28,2030.00,2662.27,2756.14,2970.58,349.72,349.85,10.87,0000 0000 0000 0000 000000
2015-04-02 11:11:18,0.09,2.07,0.00,25.24,27.57,30.35,4.75,28.00,1031.30,2030.00,2661.18,2755.49,2969.88,349.97,350.01,10.90,0000 0000 0000 0000 000000
2015-04-02 11:16:19,0.09,2.07,0.00,25.22,27.57,30.36,4.74,27.93,1031.31,2030.00,2660.21,2754.84,2968.95,349.61,349.67,10.93,0000 0000 0000 0000 000000
2015-04-02 11:21:20,0.14,2.07,0.00,25.19,27.58,30.37,4.76,28.02,1031.38,2030.00,2658.83,2753.90,2967.88,350.23,350.29,10.96,0000 0000 0000 0000 000000
2015-04-02 11:26:22,0.13,2.08,0.00,25.19,27.58,30.36,4.78,28.02,1031.58,2030.00,2657.54,2752.98,2966.79,349.45,349.59,10.99,0000 0000 0000 0000 000000
2015-04-02 11:31:23,0.11,2.08,0.00,25.24,27.59,30.37,4.81,28.22,1031.69,2030.00,2656.42,2752.13,2965.87,350.74,350.94,11.02,0000 0000 0000 0000 000000
2015-04-02 11:36:24,0.10,2.08,0.00,25.21,27.59,30.37,4.80,27.96,1031.75,2029.99,2655.27,2751.54,2965.02,350.23,350.58,11.05,0000 0000 0000 0000 000000
2015-04-02 11:41:26,0.07,2.09,0.00,25.23,27.59,30.36,4.82,27.94,1031.75,2029.99,2654.31,2751.00,2964.20,349.93,350.24,11.08,0000 0000 0000 0000 000000
2015-04-02 11:46:27,0.10,2.09,0.00,25.19,27.59,30.35,4.79,27.96,1031.74,2029.99,2653.46,2750.45,2963.67,349.47,349.64,11.11,0000 0000 0000 0000 000000
2015-04-02 11:51:28,0.05,2.09,0.00,25.15,27.59,30.35,4.82,28.13,1031.74,2029.99,2652.56,2749.98,2963.00,350.14,350.33,11.14,0000 0000 0000 0000 000000
2015-04-02 11:56:29,0.09,2.09,0.00,25.17,27.59,30.33,4.80,28.13,1031.70,2029.99,2651.85,2749.29,2962.25,349.62,349.96,11.17,0000 0000 0000 0000 000000
2015-04-02 12:01:31,0.03,2.10,0.00,25.20,27.60,30.33,4.81,28.18,1031.60,2029.99,2651.05,2749.00,2961.99,349.82,350.26,11.20,0000 0000 0000 0000 000000
2015-04-02 12:06:32,0.08,2.10,0.00,25.19,27.60,30.34,4.83,28.05,1031.56,2029.99,2650.40,2748.66,2961.32,350.22,350.60,11.23,0000 0000 0000 0000 000000
2015-04-02 12:11:33,0.04,2.10,0.00,25.13,27.60,30.34,4.72,28.07,1031.38,2029.99,2649.86,2748.05,2961.00,349.93,350.14,11.25,0000 0000 0000 0000 000000
2015-04-02 12:16:34,0.06,2.10,0.00,25.16,27.60,30.31,4.70,28.19,1031.32,2029.99,2649.07,2747.91,2960.30,349.04,349.29,11.28,0000 0000 0000 0000 000000
2015-04-02 12:21:36,0.08,2.10,0.00,25.15,27.60,30.31,4.78,28.25,1031.33,2029.99,2648.45,2747.16,2960.00,350.45,350.92,11.31,0000 0000 0000 0000 000000
2015-04-02 12:26:37,0.03,2.11,0.00,25.15,27.60,30.33,4.86,28.20,1031.42,2029.99,2647.94,2746.99,2959.54,349.90,350.31,11.34,0000 0000 0000 0000 000000
2015-04-02 12:31:38,0.09,2.11,0.00,25.13,27.60,30.34,4.86,28.19,1031.61,2029.99,2647.12,2746.40,2959.01,350.06,350.68,11.37,0000 0000 0000 0000 000000
2015-04-02 12:36:39,0.05,2.11,0.00,25.14,27.61,30.35,4.75,28.15,1031.61,2029.99,2646.66,2746.01,2958.50,349.93,350.29,11.40,0000 0000 0000 0000 000000
2015-04-02 12:41:40,0.03,2.11,0.00,25.10,27.62,30.35,4.72,28.06,1031.63,2029.99,2646.02,2745.90,2958.01,349.46,349.70,11.43,0000 0000 0000 0000 000000
2015-04-02 12:46:41,0.09,2.11,0.00,25.07,27.62,30.31,4.80,27.98,1031.67,2029.98,2645.48,2745.13,2957.74,349.95,350.30,11.46,0000 0000 0000 0000 000000
2015-04-02 12:51:42,0.03,2.11,0.00,25.13,27.62,30.37,4.81,28.26,1031.68,2029.98,2644.85,2744.99,2957.04,350.03,350.14,11.49,0000 0000 0000 0000 000000
2015-04-02 12:56:43,0.09,2.12,0.00,25.09,27.62,30.38,4.84,28.24,1031.72,2029.98,2644.13,2744.51,2956.69,349.89,350.28,11.52,0000 0000 0000 0000 000000
2015-04-02 13:01:45,0.03,2.12,0.00,25.05,27.62,30.39,4.78,27.98,1031.72,2029.97,2643.76,2744.02,2956.03,350.16,350.43,11.55,0000 0000 0000 0000 000000
2015-04-02 13:06:46,0.04,2.12,0.00,25.03,27.62,30.36,4.85,28.05,1031.75,2029.97,2643.03,2743.94,2955.82,349.79,350.56,11.58,0000 0000 0000 0000 000000